Wind_Speed
14 13 11 11 11 11 11 11 10 11 11 9 8 7 7 6 5 5 5 4 3 3 2 2 0 2 3 4 6 7 7 8 8 9 9 10 9 9 9 8 9 10 11 12
14 13 12 12 12 11 11 10 10 10 9 8 7 6 6 6 5 5 5 4 3 2 1 1 0 1 2 2 3 4 5 6 7 7 7 7 7 7 7 8 8 9 10 11
14 13 13 12 11 10 10 9 8 8 7 7 6 6 6 6 6 6 5 4 3 2 2 2 2 2 1 2 2 3 3 3 4 5 5 5 5 5 6 6 6 8 9 9
15 14 13 12 11 10 10 9 8 7 6 6 6 6 7 6 5 5 4 3 2 2 1 2 2 2 2 2 2 2 2 1 2 3 3 3 4 4 4 5 6 7 7 8
16 14 13 12 11 10 9 9 7 6 6 6 7 6 6 6 5 3 3 2 2 1 1 2 2 2 2 2 2 2 2 1 1 1 1 2 3 3 4 4 5 6 6 7
17 16 15 14 13 11 10 9 7 6 6 6 7 7 6 5 4 4 3 2 1 1 1 1 1 2 2 3 3 2 1 1 1 1 0 0 1 2 3 4 4 4 5 6
17 16 15 15 14 12 11 8 6 6 6 7 8 7 5 4 4 3 2 2 1 1 0 0 1 1 2 3 2 2 1 1 1 1 1 1 1 2 2 3 3 4 5 6
18 16 17 15 13 12 11 9 7 6 6 8 8 6 6 5 5 4 3 2 2 1 1 1 0 1 2 2 2 2 1 1 1 1 1 1 1 2 2 2 3 4 5 6
17 17 17 16 15 13 11 10 9 8 7 6 6 6 6 6 5 4 3 2 2 2 2 2 1 1 1 1 1 1 1 0 0 1 1 1 2 2 2 3 4 4 6 7
18 18 19 17 15 14 13 11 10 8 7 5 6 6 6 6 5 4 3 3 3 3 2 3 3 2 2 1 1 1 1 1 1 1 1 2 2 2 3 4 4 5 6 7
19 18 19 18 17 15 14 12 11 10 9 7 7 7 8 7 6 5 5 4 4 4 4 4 4 4 3 3 2 2 2 2 2 2 2 2 2 3 4 4 5 6 7 8
21 20 18 18 18 17 16 14 13 12 11 9 7 8 9 8 8 7 6 6 5 5 5 5 5 5 5 5 4 4 4 4 4 4 3 3 3 4 5 5 6 7 8 9
22 21 18 18 18 18 17 16 15 14 12 11 9 10 11 9 9 8 8 7 7 7 7 6 6 6 6 6 6 6 6 6 5 5 5 4 5 5 6 7 8 9 10 11
23 22 20 18 17 18 17 17 16 15 12 12 12 11 11 11 10 10 9 9 9 9 9 8 8 8 7 7 7 7 7 7 6 6 6 6 6 7 7 8 9 10 11 12
23 22 21 20 21 20 18 18 17 16 15 14 14 13 12 12 12 11 11 11 10 10 10 9 9 9 9 9 9 9 9 8 8 8 8 8 8 8 9 9 10 11 12 13
24 23 21 21 21 20 19 18 17 17 17 16 15 13 13 13 13 13 12 12 11 11 11 11 11 10 10 11 11 10 10 10 10 10 10 10 10 10 11 11 12 13 14 15
23 22 20 19 19 20 19 18 18 18 18 17 15 14 15 14 14 13 13 13 12 12 12 12 12 12 12 12 12 12 12 12 12 12 12 12 12 12 12 13 13 14 15 16
23 22 20 20 20 20 18 18 19 19 18 17 17 16 16 15 15 14 14 13 14 13 13 13 13 13 13 13 13 13 14 14 14 13 13 13 13 14 14 15 15 16 17 18
23 22 21 21 20 19 18 18 18 18 18 18 17 17 17 17 16 15 15 14 14 14 14 14 13 13 13 14 14 14 15 15 15 15 15 15 15 16 16 17 17 18 19 20
22 22 22 21 20 18 18 17 17 17 17 18 18 18 18 17 17 17 17 16 15 15 15 15 15 15 15 15 16 16 16 17 17 17 17 17 17 17 18 18 19 20 20 21
22 23 23 22 21 19 19 17 17 17 17 17 18 18 18 19 19 19 18 18 17 17 17 17 17 17 17 17 17 18 18 18 19 19 19 19 19 19 19 20 21 21 22 22
22 23 24 22 21 20 19 17 18 18 17 17 17 17 18 19 20 19 19 19 19 19 19 19 20 20 19 19 19 20 20 20 20 20 20 21 21 21 21 21 22 22 23 24
22 22 22 22 21 21 20 19 19 18 18 18 17 17 18 19 20 20 20 20 20 20 20 21 21 21 21 21 21 22 22 21 21 21 22 22 22 22 23 23 24 24 25 26
21 21 21 21 21 21 22 21 20 19 19 19 19 19 19 19 20 20 21 21 21 21 21 21 21 22 22 23 23 23 23 23 23 23 23 23 24 24 24 25 26 26 27 27
21 23 24 23 23 23 22 22 21 21 20 20 20 20 20 21 22 22 21 21 21 22 22 22 22 23 23 23 23 23 24 24 25 24 25 25 26 26 26 27 28 28 29 29
19 21 23 25 24 24 23 23 22 21 21 21 21 21 22 22 23 23 23 23 23 23 23 23 23 23 23 24 24 24 25 25 25 25 26 26 27 28 28 29 29 30 30 31
Wind_Direction
277 279 282 285 290 292 299 306 308 311 316 316 315 316 319 320 327 330 326 321 319 322 336 328 268 181 207 226 231 233 237 236 237 239 238 241 247 252 253 257 263 265 268 271
269 272 273 277 286 292 299 305 308 307 312 313 308 307 310 315 319 320 319 314 318 322 357 30 119 190 220 222 219 226 234 233 234 235 238 243 249 256 258 264 267 271 274 274
257 260 265 271 281 291 296 300 303 306 311 313 312 312 310 314 314 314 316 320 344 14 50 64 61 70 92 139 176 211 229 232 232 227 231 234 252 260 264 270 272 277 277 277
249 253 258 264 272 282 287 291 293 303 311 312 315 317 313 320 313 315 323 333 352 11 61 73 72 74 86 113 139 170 178 200 207 214 228 242 260 271 277 282 284 282 282 284
243 245 249 256 262 269 274 280 282 290 302 302 307 310 312 313 303 300 310 321 345 15 56 74 76 79 96 112 124 136 147 144 156 195 226 255 270 281 289 292 291 291 291 294
237 240 243 248 252 257 266 272 279 288 297 301 300 300 299 302 291 285 292 298 317 1 52 86 81 89 104 116 125 124 121 114 102 103 91 338 309 305 301 301 303 305 308 311
235 238 240 244 248 253 257 261 285 301 303 292 292 290 284 288 291 291 286 278 286 290 235 93 65 95 108 113 118 115 112 109 94 89 76 21 338 329 321 316 317 318 321 323
234 236 238 240 242 248 249 246 246 261 280 287 293 283 273 276 287 285 281 267 261 258 230 207 150 132 127 124 122 115 119 116 95 76 36 360 344 345 347 343 335 332 331 330
228 231 237 238 237 239 243 244 248 256 269 281 288 282 277 275 277 273 273 259 250 251 242 235 232 177 153 141 121 101 107 123 52 28 10 358 347 350 358 350 341 338 337 337
223 229 236 236 235 237 243 246 248 248 251 267 286 295 283 273 268 267 272 269 258 261 257 256 248 226 226 234 247 261 283 294 310 325 337 343 345 347 347 345 344 341 341 342
222 227 234 233 233 240 243 242 244 249 248 249 270 277 270 264 259 264 267 264 258 258 266 267 255 244 243 248 257 268 278 287 290 297 302 313 324 331 337 341 341 340 339 338
220 224 229 234 235 235 240 241 245 250 255 250 255 270 267 261 261 265 265 260 255 256 266 267 257 253 253 257 261 267 273 280 285 289 294 302 308 316 323 330 333 333 333 333
219 222 227 235 240 239 240 242 244 245 247 253 254 266 267 264 262 264 265 260 256 257 260 262 261 259 259 259 260 264 269 274 279 281 285 294 303 311 317 320 323 327 329 329
222 222 221 227 235 241 242 243 243 241 242 253 255 254 265 265 263 264 264 261 258 258 258 260 263 262 262 261 261 264 267 271 275 280 282 288 296 303 309 313 317 322 326 327
225 226 226 229 233 238 241 242 244 243 243 245 251 257 261 263 261 261 261 261 259 259 258 260 262 264 264 264 263 265 267 269 273 278 281 287 294 299 304 309 314 319 323 324
225 227 228 231 235 238 237 241 245 247 247 247 249 255 256 258 260 260 259 259 258 258 258 260 261 263 266 266 264 265 268 271 273 277 281 285 290 294 299 304 309 315 319 321
225 226 230 232 238 239 241 244 248 251 247 247 251 254 254 254 256 259 259 258 256 258 260 260 261 264 267 267 265 265 268 271 273 275 279 282 287 291 296 300 305 310 313 317
223 226 231 231 238 243 245 246 246 248 246 248 248 249 249 249 251 254 258 258 256 259 263 263 263 266 267 267 265 264 267 270 273 275 278 282 285 289 293 297 302 306 310 313
224 226 230 233 241 245 248 245 243 245 244 244 244 244 246 246 249 252 256 258 258 259 262 263 264 265 267 267 266 265 267 271 274 276 279 282 286 290 293 297 301 305 307 310
224 228 232 235 238 244 246 241 239 241 242 243 244 243 242 242 246 251 254 257 259 260 261 264 265 267 268 268 267 267 269 272 275 278 281 284 286 289 293 297 299 302 305 307
227 231 235 237 238 241 242 241 237 239 242 241 241 241 241 242 245 249 252 256 259 260 263 265 266 268 269 270 269 268 270 273 276 278 281 283 285 288 292 295 298 300 303 305
228 231 233 233 235 237 237 239 238 239 241 241 241 241 242 245 247 248 252 256 258 260 262 264 266 268 269 270 270 270 271 273 277 279 280 282 285 288 290 293 296 299 301 304
229 229 229 231 235 237 239 242 241 241 241 240 241 244 246 249 250 251 254 256 257 258 261 262 264 267 269 270 269 269 270 273 275 277 280 283 285 287 290 293 296 299 301 303
232 231 231 233 236 240 242 242 242 243 242 242 244 245 248 251 253 255 257 258 259 260 261 263 265 267 269 269 269 268 270 272 273 276 279 282 285 287 290 292 295 297 299 301
235 232 233 235 237 240 242 242 242 243 243 244 246 248 250 252 254 256 258 259 260 262 262 263 266 269 269 269 269 270 271 273 273 275 278 281 285 287 290 292 294 296 298 300
234 235 235 238 239 240 241 242 242 243 244 245 246 248 251 252 253 255 258 260 260 260 261 264 266 268 269 269 270 270 272 273 274 277 279 282 285 288 290 292 293 295 297 299
Height
5874 5875 5875 5874 5873 5873 5872 5870 5869 5867 5865 5864 5862 5861 5860 5858 5857 5856 5856 5855 5854 5853 5852 5851 5851 5851 5851 5852 5852 5853 5853 5854 5855 5856 5856 5857 5858 5858 5858 5858 5858 5858 5858 5857
5871 5872 5872 5871 5870 5870 5869 5868 5867 5865 5864 5863 5861 5861 5859 5858 5857 5856 5855 5854 5854 5853 5852 5852 5851 5851 5851 5851 5851 5851 5852 5853 5853 5854 5855 5855 5856 5856 5856 5856 5855 5855 5855 5855
5867 5869 5868 5868 5868 5868 5867 5866 5865 5864 5863 5862 5861 5860 5859 5858 5856 5855 5855 5854 5854 5853 5852 5852 5851 5851 5851 5851 5851 5852 5852 5852 5852 5852 5853 5853 5854 5854 5854 5854 5853 5853 5853 5852
5863 5865 5865 5865 5865 5865 5865 5864 5863 5863 5862 5862 5861 5860 5859 5857 5856 5855 5854 5854 5854 5853 5853 5852 5852 5851 5851 5851 5851 5852 5852 5852 5851 5852 5852 5852 5852 5852 5852 5852 5852 5851 5851 5850
5860 5861 5862 5862 5863 5863 5863 5862 5862 5861 5861 5861 5860 5859 5859 5856 5855 5855 5854 5854 5854 5853 5853 5852 5852 5852 5851 5851 5851 5852 5852 5851 5851 5851 5851 5851 5851 5851 5850 5850 5850 5849 5849 5848
5856 5857 5858 5859 5860 5860 5860 5861 5860 5860 5860 5861 5859 5858 5858 5855 5855 5854 5854 5853 5853 5853 5853 5853 5852 5852 5852 5852 5852 5852 5852 5851 5851 5851 5851 5850 5850 5850 5849 5849 5848 5848 5847 5846
5852 5853 5854 5856 5856 5857 5858 5859 5861 5860 5860 5860 5857 5856 5856 5854 5854 5853 5853 5853 5853 5853 5852 5852 5852 5852 5852 5852 5852 5852 5852 5851 5851 5851 5850 5850 5849 5849 5848 5848 5847 5846 5845 5844
5849 5851 5851 5852 5854 5855 5855 5857 5859 5860 5860 5859 5856 5855 5855 5853 5852 5852 5852 5852 5852 5852 5852 5852 5852 5852 5852 5852 5852 5852 5851 5851 5851 5850 5850 5849 5849 5848 5847 5846 5845 5844 5843 5842
5846 5848 5848 5849 5850 5852 5853 5854 5855 5856 5856 5856 5855 5854 5853 5852 5851 5851 5851 5851 5851 5852 5852 5852 5852 5851 5851 5852 5852 5851 5851 5851 5850 5850 5849 5849 5848 5847 5846 5845 5844 5843 5842 5840
5841 5844 5844 5845 5847 5848 5850 5851 5852 5853 5854 5856 5855 5853 5853 5851 5850 5850 5850 5850 5850 5851 5851 5851 5851 5851 5851 5851 5851 5851 5851 5850 5850 5849 5849 5848 5847 5846 5845 5844 5843 5841 5840 5839
5836 5839 5841 5842 5844 5845 5847 5848 5849 5851 5851 5853 5854 5855 5850 5849 5849 5849 5849 5849 5849 5849 5850 5850 5850 5850 5850 5850 5850 5850 5850 5849 5849 5848 5848 5847 5846 5845 5844 5843 5841 5840 5838 5837
5832 5835 5837 5839 5840 5841 5843 5844 5846 5848 5848 5849 5850 5853 5848 5848 5847 5847 5847 5848 5848 5848 5848 5848 5849 5849 5849 5849 5849 5849 5849 5848 5848 5847 5846 5845 5845 5844 5843 5841 5840 5839 5837 5835
5827 5830 5834 5836 5838 5838 5839 5840 5842 5843 5845 5846 5848 5851 5845 5845 5845 5845 5846 5846 5846 5846 5847 5847 5847 5847 5847 5847 5847 5847 5847 5847 5846 5845 5845 5844 5843 5842 5841 5840 5838 5837 5835 5833
5821 5825 5830 5833 5834 5834 5835 5836 5837 5839 5841 5843 5844 5844 5843 5843 5843 5843 5843 5844 5844 5844 5844 5845 5845 5845 5845 5845 5845 5845 5845 5845 5844 5844 5843 5842 5841 5840 5839 5838 5836 5834 5832 5830
5816 5820 5823 5826 5828 5829 5831 5832 5833 5835 5836 5839 5840 5840 5840 5839 5840 5840 5840 5841 5841 5842 5842 5842 5842 5843 5843 5843 5843 5843 5843 5843 5842 5841 5841 5840 5839 5838 5837 5835 5834 5832 5830 5828
5812 5815 5818 5820 5822 5824 5826 5828 5829 5830 5832 5833 5834 5836 5836 5835 5836 5836 5837 5837 5838 5838 5839 5839 5839 5840 5840 5840 5840 5840 5840 5840 5839 5839 5838 5837 5836 5835 5834 5832 5831 5829 5826 5824
5807 5810 5813 5816 5818 5820 5822 5824 5825 5826 5827 5829 5830 5832 5831 5831 5832 5832 5833 5834 5834 5835 5836 5836 5836 5837 5837 5837 5837 5837 5837 5837 5836 5836 5835 5834 5833 5832 5830 5829 5827 5825 5823 5820
5802 5805 5808 5812 5814 5815 5820 5819 5820 5821 5822 5823 5824 5825 5826 5827 5827 5828 5829 5830 5831 5831 5832 5832 5833 5833 5833 5833 5834 5834 5834 5833 5833 5832 5831 5830 5829 5828 5827 5825 5823 5821 5819 5816
5797 5800 5803 5806 5808 5811 5813 5814 5814 5816 5817 5818 5818 5820 5821 5822 5823 5824 5825 5826 5826 5827 5828 5828 5829 5829 5829 5829 5830 5829 5829 5829 5829 5828 5827 5826 5825 5824 5822 5821 5818 5816 5814 5811
5791 5795 5799 5801 5803 5806 5808 5808 5808 5811 5812 5812 5813 5814 5815 5817 5819 5820 5820 5821 5822 5823 5824 5824 5825 5825 5825 5825 5825 5825 5825 5824 5824 5823 5822 5821 5820 5819 5817 5815 5813 5811 5809 5806
5786 5789 5792 5795 5797 5800 5801 5802 5804 5807 5807 5806 5807 5808 5810 5812 5814 5815 5815 5816 5817 5818 5819 5819 5820 5820 5820 5820 5820 5820 5820 5819 5819 5818 5817 5816 5815 5814 5812 5810 5808 5806 5803 5801
5781 5784 5786 5789 5792 5796 5795 5796 5798 5800 5800 5801 5802 5803 5805 5806 5807 5809 5810 5811 5812 5813 5814 5814 5815 5815 5815 5815 5815 5814 5814 5814 5813 5813 5812 5811 5809 5808 5806 5804 5802 5800 5797 5795
5775 5778 5780 5783 5787 5787 5788 5790 5791 5793 5794 5796 5797 5798 5799 5801 5802 5803 5804 5805 5806 5807 5808 5809 5809 5809 5809 5809 5809 5809 5808 5808 5807 5807 5806 5805 5803 5802 5800 5798 5796 5793 5791 5788
5769 5771 5774 5776 5779 5780 5782 5784 5785 5787 5789 5790 5792 5793 5794 5795 5796 5797 5798 5799 5800 5801 5802 5802 5803 5803 5803 5803 5803 5802 5802 5802 5801 5800 5799 5798 5796 5795 5793 5791 5789 5786 5783 5781
5763 5765 5767 5770 5772 5774 5776 5778 5780 5781 5783 5785 5786 5787 5788 5789 5790 5791 5792 5793 5794 5795 5795 5796 5796 5796 5796 5796 5796 5796 5795 5795 5794 5793 5792 5790 5789 5787 5785 5783 5781 5779 5776 5773
5757 5759 5761 5763 5766 5767 5770 5771 5773 5775 5777 5779 5780 5781 5782 5783 5784 5785 5786 5787 5787 5788 5789 5789 5790 5790 5790 5789 5789 5789 5788 5788 5787 5785 5784 5783 5781 5780 5778 5775 5773 5770 5768 5765